• In Hungary
  • List of Countries
  • For 7 days
  • Water Temperature
  • Satellite Maps
  • Weather Map
  • News
  • Weather Widgets
  • user-avatar
    Login

    Hourly Weather Horodnje

    Today, 22 June, Friday

    Time Temperature Precipitation Wind Pressure Humidity
    00:00 +19°C° 0 mm 2 mps 748 mmHg 69%
    01:00 +19°C° 0 mm 2 mps 748 mmHg 71%
    02:00 +19°C° 0 mm 2 mps 747 mmHg 70%
    03:00 +19°C° 0 mm 2 mps 747 mmHg 71%
    04:00 +20°C° 0 mm 2 mps 747 mmHg 72%
    05:00 +20°C° 0 mm 2 mps 747 mmHg 73%
    06:00 +22°C° 0 mm 3 mps 747 mmHg 68%
    07:00 +25°C° 0 mm 3 mps 747 mmHg 63%
    08:00 +27°C° 0 mm 3 mps 747 mmHg 57%
    09:00 +28°C° 0 mm 3 mps 747 mmHg 52%
    10:00 +30°C° 0 mm 3 mps 747 mmHg 47%
    11:00 +31°C° 0 mm 3 mps 747 mmHg 43%
    12:00 +33°C° 0 mm 3 mps 746 mmHg 41%
    13:00 +33°C° 0 mm 3 mps 746 mmHg 39%
    14:00 +34°C° 0 mm 3 mps 746 mmHg 37%
    15:00 +34°C° 0 mm 2 mps 745 mmHg 39%
    16:00 +34°C° 0 mm 2 mps 745 mmHg 42%
    17:00 +32°C° 0 mm 2 mps 745 mmHg 44%
    18:00 +30°C° 0 mm 2 mps 745 mmHg 47%
    19:00 +28°C° 0 mm 2 mps 745 mmHg 50%
    20:00 +26°C° 0 mm 2 mps 745 mmHg 53%
    21:00 +25°C° 0 mm 3 mps 745 mmHg 54%
    22:00 +25°C° 0 mm 3 mps 745 mmHg 56%
    23:00 +24°C° 0 mm 3 mps 744 mmHg 57%

    Tomorrow, 23 June, Saturday

    Time Temperature Precipitation Wind Pressure Humidity
    00:00 +24°C° 0 mm 3 mps 744 mmHg 58%
    01:00 +22°C° 0 mm 3 mps 744 mmHg 58%
    02:00 +22°C° 0 mm 3 mps 745 mmHg 59%
    03:00 +22°C° 0 mm 3 mps 744 mmHg 61%
    04:00 +22°C° 0 mm 3 mps 744 mmHg 63%
    05:00 +21°C° 0 mm 2 mps 744 mmHg 65%
    06:00 +24°C° 0 mm 3 mps 744 mmHg 62%
    07:00 +25°C° 0 mm 3 mps 744 mmHg 59%
    08:00 +27°C° 0 mm 3 mps 744 mmHg 56%
    09:00 +28°C° 0 mm 3 mps 744 mmHg 52%
    10:00 +29°C° 0 mm 3 mps 744 mmHg 48%
    11:00 +31°C° 0 mm 3 mps 744 mmHg 45%
    12:00 +30°C° 0.1 mm 4 mps 743 mmHg 47%
    13:00 +30°C° 0.1 mm 4 mps 743 mmHg 50%
    14:00 +29°C° 0.1 mm 4 mps 742 mmHg 53%
    15:00 +29°C° 0 mm 4 mps 742 mmHg 56%
    16:00 +28°C° 0 mm 3 mps 742 mmHg 59%
    17:00 +28°C° 0 mm 3 mps 741 mmHg 63%
    18:00 +27°C° 0.6 mm 3 mps 742 mmHg 69%
    19:00 +25°C° 0.6 mm 2 mps 742 mmHg 76%
    20:00 +23°C° 0.6 mm 2 mps 742 mmHg 82%
    21:00 +23°C° 0.6 mm 2 mps 742 mmHg 85%
    22:00 +22°C° 0.6 mm 1 mps 742 mmHg 88%
    23:00 +21°C° 0.6 mm 1 mps 742 mmHg 90%

    Day after tomorrow, 24 June, Sunday

    Time Temperature Precipitation Wind Pressure Humidity
    00:00 +20°C° 0.3 mm 2 mps 742 mmHg 91%
    01:00 +19°C° 0.3 mm 3 mps 742 mmHg 93%
    02:00 +19°C° 0.3 mm 4 mps 743 mmHg 94%
    03:00 +18°C° 0 mm 4 mps 743 mmHg 93%
    04:00 +16°C° 0 mm 5 mps 744 mmHg 92%
    05:00 +15°C° 0 mm 5 mps 744 mmHg 91%
    06:00 +15°C° 0 mm 5 mps 745 mmHg 88%
    07:00 +15°C° 0 mm 5 mps 745 mmHg 86%
    08:00 +15°C° 0 mm 5 mps 746 mmHg 83%
    09:00 +16°C° 0 mm 5 mps 746 mmHg 76%
    10:00 +19°C° 0 mm 5 mps 746 mmHg 70%
    11:00 +20°C° 0 mm 5 mps 747 mmHg 64%
    12:00 +21°C° 0 mm 5 mps 747 mmHg 60%
    13:00 +22°C° 0 mm 5 mps 747 mmHg 57%
    14:00 +23°C° 0 mm 5 mps 747 mmHg 53%
    15:00 +23°C° 0 mm 5 mps 748 mmHg 54%
    16:00 +23°C° 0 mm 4 mps 748 mmHg 55%
    17:00 +23°C° 0 mm 4 mps 748 mmHg 56%
    18:00 +21°C° 0 mm 4 mps 748 mmHg 62%
    19:00 +19°C° 0 mm 3 mps 748 mmHg 68%
    20:00 +18°C° 0 mm 2 mps 749 mmHg 74%
    21:00 +17°C° 0 mm 2 mps 749 mmHg 75%
    22:00 +16°C° 0 mm 2 mps 749 mmHg 77%
    23:00 +16°C° 0 mm 2 mps 750 mmHg 78%

    25 June, Monday

    Time Temperature Precipitation Wind Pressure Humidity
    00:00 +16°C° 0 mm 2 mps 750 mmHg 79%
    01:00 +15°C° 0 mm 2 mps 750 mmHg 81%
    02:00 +15°C° 0 mm 2 mps 750 mmHg 82%
    03:00 +15°C° 0 mm 2 mps 750 mmHg 81%
    04:00 +16°C° 0 mm 2 mps 750 mmHg 81%
    05:00 +16°C° 0 mm 2 mps 751 mmHg 80%
    06:00 +18°C° 0 mm 2 mps 751 mmHg 73%
    07:00 +19°C° 0 mm 2 mps 751 mmHg 67%
    08:00 +21°C° 0 mm 2 mps 751 mmHg 60%
    09:00 +23°C° 0 mm 2 mps 751 mmHg 55%
    10:00 +24°C° 0 mm 2 mps 751 mmHg 51%
    11:00 +25°C° 0 mm 2 mps 751 mmHg 46%
    12:00 +26°C° 0 mm 3 mps 751 mmHg 44%
    13:00 +26°C° 0 mm 3 mps 751 mmHg 43%
    14:00 +27°C° 0 mm 3 mps 751 mmHg 41%
    15:00 +27°C° 0 mm 3 mps 751 mmHg 42%
    16:00 +26°C° 0 mm 3 mps 751 mmHg 44%
    17:00 +26°C° 0 mm 3 mps 751 mmHg 45%
    18:00 +24°C° 0 mm 3 mps 751 mmHg 51%
    19:00 +21°C° 0 mm 2 mps 751 mmHg 57%
    20:00 +20°C° 0 mm 2 mps 751 mmHg 63%
    21:00 +19°C° 0 mm 2 mps 752 mmHg 65%
    22:00 +18°C° 0 mm 2 mps 752 mmHg 68%
    23:00 +18°C° 0 mm 2 mps 752 mmHg 70%

    26 June, Tuesday

    Time Temperature Precipitation Wind Pressure Humidity
    00:00 +17°C° 0 mm 2 mps 752 mmHg 73%
    01:00 +16°C° 0 mm 3 mps 752 mmHg 76%
    02:00 +16°C° 0 mm 3 mps 752 mmHg 79%
    03:00 +16°C° 0 mm 3 mps 751 mmHg 79%
    04:00 +16°C° 0 mm 3 mps 751 mmHg 79%
    05:00 +16°C° 0 mm 3 mps 751 mmHg 80%
    06:00 +18°C° 0 mm 3 mps 751 mmHg 73%
    07:00 +20°C° 0 mm 4 mps 751 mmHg 65%
    08:00 +23°C° 0 mm 4 mps 752 mmHg 58%
    09:00 +25°C° 0 mm 4 mps 751 mmHg 54%
    10:00 +26°C° 0 mm 4 mps 751 mmHg 50%
    11:00 +27°C° 0 mm 4 mps 751 mmHg 46%
    12:00 +27°C° 0 mm 4 mps 751 mmHg 45%
    13:00 +28°C° 0 mm 4 mps 750 mmHg 44%
    14:00 +28°C° 0 mm 4 mps 750 mmHg 43%
    15:00 +28°C° 0 mm 4 mps 750 mmHg 45%
    16:00 +27°C° 0 mm 4 mps 750 mmHg 48%
    17:00 +27°C° 0 mm 4 mps 749 mmHg 50%
    18:00 +25°C° 0 mm 4 mps 749 mmHg 57%
    19:00 +22°C° 0 mm 4 mps 749 mmHg 63%
    20:00 +20°C° 0 mm 3 mps 749 mmHg 70%
    21:00 +20°C° 0 mm 3 mps 749 mmHg 73%
    22:00 +19°C° 0 mm 3 mps 749 mmHg 75%
    23:00 +18°C° 0 mm 3 mps 749 mmHg 78%

    27 June, Wednesday

    Time Temperature Precipitation Wind Pressure Humidity
    00:00 +18°C° 0 mm 3 mps 749 mmHg 79%
    01:00 +18°C° 0 mm 4 mps 749 mmHg 81%
    02:00 +17°C° 0 mm 4 mps 748 mmHg 82%
    03:00 +17°C° 0 mm 4 mps 748 mmHg 81%
    04:00 +18°C° 0 mm 4 mps 748 mmHg 81%
    05:00 +18°C° 0 mm 4 mps 748 mmHg 80%
    06:00 +19°C° 0.1 mm 5 mps 748 mmHg 76%
    07:00 +21°C° 0.1 mm 5 mps 748 mmHg 71%
    08:00 +23°C° 0.1 mm 6 mps 748 mmHg 67%
    09:00 +23°C° 0.2 mm 6 mps 747 mmHg 66%
    10:00 +24°C° 0.2 mm 6 mps 747 mmHg 66%
    11:00 +24°C° 0.2 mm 6 mps 747 mmHg 66%
    12:00 +26°C° 0.5 mm 6 mps 746 mmHg 66%
    13:00 +26°C° 0.5 mm 6 mps 746 mmHg 67%
    14:00 +26°C° 0.5 mm 6 mps 746 mmHg 68%
    15:00 +26°C° 1.3 mm 6 mps 745 mmHg 70%
    16:00 +26°C° 1.3 mm 6 mps 745 mmHg 72%
    17:00 +24°C° 1.3 mm 6 mps 745 mmHg 75%
    18:00 +23°C° 2.9 mm 7 mps 744 mmHg 80%
    19:00 +22°C° 2.9 mm 7 mps 744 mmHg 85%
    20:00 +21°C° 2.9 mm 7 mps 744 mmHg 90%
    21:00 +21°C° 1.5 mm 6 mps 744 mmHg 91%
    22:00 +21°C° 1.5 mm 6 mps 744 mmHg 92%
    23:00 +21°C° 1.5 mm 6 mps 743 mmHg 93%
    Show more